Location: Daybis Observatory
(33.4273°N, 88.8061°W)
Time: 13:58:06
(UTC-06:00)

Daily predictions for brighter satellites

Satellite Brightness Start Highest point End
(mag) Time Altitude Azimuth Time Altitude Azimuth Time Altitude Azimuth
Cosmos 1125 Rocket 3.9 17:09:59 10° S 17:15:01 46° ESE 17:20:04 10° NNE
Meteor 2-4 Rocket 4.0 17:10:59 10° SSE 17:16:10 45° E 17:21:16 10° NNE
IUS-13 SRM-1 4.3 17:18:10 10° SSW 17:18:43 11° S 17:19:21 10° SSE
Cosmos 389 Rocket 2.3 17:16:01 10° N 17:19:29 75° E 17:22:54 10° SSE
Meteor 1-13 Rocket 4.2 17:15:25 10° S 17:20:55 69° E 17:26:33 10° NNE
SKYMED 2 4.5 17:17:50 10° NE 17:21:38 29° E 17:25:24 10° SSE
CSL-04 Debris 4.1 17:17:13 10° SSE 17:22:34 72° ENE 17:27:56 10° N
CZ-4 R/B 1.6 17:19:37 10° SE 17:23:16 43° ENE 17:26:59 10° N
USA 238 DEB 4.1 17:17:15 10° NNW 17:24:00 44° NE 17:30:47 10° SE
USA 238 4.1 17:17:21 10° NNW 17:24:06 43° NE 17:30:52 10° ESE
Cosmos 1655 Rocket 4.1 17:22:15 10° N 17:28:41 88° W 17:35:04 10° S
Cosmos 2369 3.7 17:23:35 10° S 17:29:11 71° ESE 17:34:52 10° NNE
IRAS Rocket 4.3 17:24:00 10° SSE 17:29:29 88° WSW 17:34:59 10° NNW
Cosmos 2278 3.7 17:24:35 10° S 17:30:11 68° ESE 17:35:51 10° NNE
Cosmos 2266 Rocket 4.2 17:27:26 10° N 17:33:14 45° E 17:39:06 10° SSE
Hubble Space Telescope 2.0 17:31:43 10° WSW 17:35:34 38° S 17:39:25 10° ESE
Cosmos 372 Rocket 4.0 17:31:02 10° S 17:36:13 72° ESE 17:41:24 10° NNE
FENGYUN 3A 4.4 17:35:45 10° SE 17:40:17 29° ENE 17:44:50 10° NNE
CSL-04 Rocket 4.1 17:35:30 10° S 17:40:51 68° WSW 17:46:20 10° NNW
Okean 2 4.4 17:38:56 10° SSE 17:42:19 26° E 17:45:16 12° NE
Meteor 1-28 Rocket 3.9 17:38:42 10° N 17:42:23 55° WNW 17:46:04 10° SSW
METEOR-M 4.2 17:38:44 10° SSE 17:43:53 53° ENE 17:49:04 10° N
DELTA 2 R/B (1) 4.1 17:39:41 10° WNW 17:45:00 44° N 17:49:04 17° ENE
Cosmos 1455 Rocket 3.2 17:41:11 10° N 17:45:36 80° W 17:49:57 10° S
GOES 2 Rocket 3.9 17:42:31 10° WSW 17:46:39 46° S 17:51:18 11° ESE
EO 1 Del DPAF 3.5 17:45:34 10° NNE 17:49:15 48° E 17:52:56 10° S
Cosmos 1544 Rocket 4.0 17:45:25 10° NNW 17:49:43 64° W 17:53:59 10° S
YAOGAN 1 2.5 17:45:50 10° SSE 17:50:06 67° ENE 17:54:25 10° N
Cosmos 1697 Rocket 2.8 17:45:01 10° S 17:50:33 60° ESE 17:56:06 10° NNE
Cosmos 1743 3.9 17:47:18 10° NNW 17:51:02 47° W 17:54:46 10° SSW
Cosmos 1515 4.1 17:47:54 10° SSE 17:51:25 39° E 17:54:28 13° NNE
NOSS 3-2 (A) 4.4 17:46:22 10° NNW 17:53:34 42° NE 18:01:16 10° ESE
Delta 2 Rocket 3.9 17:50:36 10° WNW 17:56:14 90° NNE 18:00:15 17° ESE
CZ-2C R/B 4.4 17:51:50 10° N 17:56:28 59° WNW 18:01:07 10° SSW
MTI 3.7 17:53:15 10° N 17:56:30 86° WNW 17:59:44 10° SSW
USA 116 4.5 17:55:51 10° N 17:58:48 39° WNW 18:01:42 10° SW
SMAP 4.4 17:57:31 10° S 18:01:55 43° W 18:06:21 10° NNW
CZ-4 R/B 4.4 17:58:40 10° SSE 18:02:48 89° ENE 18:06:57 10° NNW
ATLAS 2AS CENTAUR R/B 4.4 17:56:06 10° WSW 18:02:54 32° NW 18:10:01 10° NNE
Cosmos 2082 3.6 17:59:25 10° NNW 18:05:01 67° ENE 18:10:36 10° SSE
ATLAS 3B R/B 2.5 18:02:56 10° NNW 18:09:34 85° ENE 18:16:03 10° SSE
COSMO-SKYMED 1 2.8 18:05:24 10° N 18:09:44 71° WNW 18:14:02 10° SSW
Cosmos 158 Rocket 4.0 18:07:22 10° NNW 18:12:25 76° WSW 18:17:19 10° S
MOS 1 4.2 18:07:01 10° SSE 18:12:41 77° ENE 18:18:23 10° N
OAO 1 Rocket 4.4 18:07:54 10° W 18:13:14 75° N 18:15:48 31° ENE
USA 215 3.6 18:06:57 10° SE 18:13:27 69° SW 18:19:59 10° NW
ERS-2 2.0 18:10:05 10° SSE 18:13:42 71° ENE 18:17:22 10° N
SJ 16-02 2.6 18:10:02 10° SW 18:14:08 39° WNW 18:18:16 10° N
ALOS 2.2 18:10:32 10° SSE 18:15:08 65° ENE 18:19:46 10° N
Cosmos 2227 Rocket 2.4 18:11:54 10° NNW 18:17:34 73° WSW 18:23:09 10° SSE
DMSP B5D1-3 4.4 18:15:29 10° NNE 18:20:38 81° ESE 18:25:44 10° S
Cosmos 1553 Rocket 4.4 18:16:51 10° SSE 18:22:46 41° E 18:26:05 24° NE
NOSS 3-4 (A) 3.6 18:17:40 10° SW 18:23:52 74° WNW 18:28:35 19° NNE
NOSS 3-4 (C) 3.6 18:17:46 10° SW 18:23:58 75° WNW 18:28:39 19° NNE
Atlas 2A Centaur Rocket 4.2 18:11:18 10° W 18:25:04 38° SSW 18:28:28 13° SE
SPOT 3 Rocket 3.4 18:23:00 10° SSE 18:28:11 86° ENE 18:33:22 10° NNW
Meteor 2-11 Rocket 4.4 18:22:45 10° S 18:28:55 89° W 18:35:06 10° N
Okean 1-7 Rocket 3.4 18:25:10 10° S 18:29:31 77° E 18:31:34 31° NNE
Cosmos 1066 Rocket 4.3 18:24:34 10° SSE 18:29:56 50° E 18:31:38 37° NE
Skynet4D Del rocket 4.4 18:24:42 10° WSW 18:30:24 44° S 18:32:58 27° SE
Cosmos 1980 Rocket 2.1 18:25:25 10° SSW 18:31:03 77° ESE 18:34:03 29° NNE
NOSS 2-2 (D) 3.7 18:29:02 10° S 18:32:21 46° SE 18:32:21 46° SE
Atlas Centaur 2 2.7 18:29:35 10° W 18:34:18 37° SSW 18:36:07 25° SSE
Cosmos 1025 Rocket 3.6 18:35:15 10° SSW 18:39:29 56° W 18:42:40 17° N
Lacrosse 5 rocket 3.7 18:36:54 10° SSE 18:37:19 12° SSE 18:37:19 12° SSE
SL-8 R/B 4.0 18:38:35 10° SSW 18:43:08 49° SE 18:43:08 49° SE
Cosmos 2297 Rocket 3.1 18:38:50 10° NNW 18:44:16 49° WSW 18:49:41 10° S
Thor Agena Rocket 3.5 18:44:03 55° NE 18:44:57 65° ESE 18:50:11 10° S
RESURS DK-1 2.6 18:41:23 10° SSW 18:44:47 58° S 18:44:47 58° S
ISS -2.4 18:44:16 10° WNW 18:47:12 37° SW 18:47:12 37° SW
NOSS 2-2 (E) 3.4 18:44:55 10° SSW 18:48:22 71° SW 18:48:22 71° SW
Cosmos 2344 3.9 18:42:20 10° S 18:49:26 40° ESE 18:49:48 39° ESE
CENTAUR R/B 3.8 18:43:54 10° NNW 18:50:09 33° NE 18:50:09 33° NE
NOSS 2-2 (C) 3.9 18:51:21 10° SSW 18:54:16 51° SW 18:54:16 51° SW
SL-16 R/B 3.4 19:05:29 10° S 19:08:18 29° SSE 19:08:18 29° SSE
Hubble Space Telescope 3.1 19:13:20 10° WSW 19:15:46 19° SSW 19:15:46 19° SSW
Cosmos 2322 Rocket 3.5 19:11:18 10° S 19:13:50 27° S 19:13:50 27° S
CZ-3A R/B 4.4 19:45:39 10° WSW 19:59:04 38° SSW 19:59:04 38° SSW
